TimeCDT,TemperatureF,Dew PointF,Humidity,Sea Level PressureIn,VisibilityMPH,Wind Direction,Wind SpeedMPH,Gust SpeedMPH,PrecipitationIn,Events,Conditions,WindDirDegrees,DateUTC
12:15 AM,60.8,55.4,82,30.05,10.0,Calm,Calm,-,N/A,,Clear,0,2013-10-01 05:15:00
12:35 AM,60.8,55.4,82,30.05,10.0,Calm,Calm,-,N/A,,Clear,0,2013-10-01 05:35:00
12:55 AM,59.0,55.4,88,30.05,10.0,Calm,Calm,-,N/A,,Clear,0,2013-10-01 05:55:00
1:15 AM,59.0,55.4,88,30.05,10.0,Calm,Calm,-,N/A,,Clear,0,2013-10-01 06:15:00
1:35 AM,59.0,55.4,88,30.05,10.0,Calm,Calm,-,N/A,,Scattered Clouds,0,2013-10-01 06:35:00
1:55 AM,57.2,55.4,94,30.05,10.0,Calm,Calm,-,N/A,,Partly Cloudy,0,2013-10-01 06:55:00
2:15 AM,59.0,55.4,88,30.05,10.0,Calm,Calm,-,N/A,,Clear,0,2013-10-01 07:15:00
2:35 AM,57.2,53.6,88,30.05,10.0,Calm,Calm,-,N/A,,Clear,0,2013-10-01 07:35:00
2:55 AM,57.2,53.6,88,30.05,8.0,Calm,Calm,-,N/A,,Clear,0,2013-10-01 07:55:00
3:15 AM,57.2,53.6,88,30.05,10.0,Calm,Calm,-,N/A,,Clear,0,2013-10-01 08:15:00
3:35 AM,57.2,53.6,88,30.06,10.0,Calm,Calm,-,N/A,,Clear,0,2013-10-01 08:35:00
3:55 AM,57.2,55.4,94,30.07,10.0,Calm,Calm,-,N/A,,Mostly Cloudy,0,2013-10-01 08:55:00
4:15 AM,59.0,55.4,88,30.08,10.0,Calm,Calm,-,N/A,,Overcast,0,2013-10-01 09:15:00
4:35 AM,59.0,55.4,88,30.08,10.0,Calm,Calm,-,N/A,,Mostly Cloudy,0,2013-10-01 09:35:00
4:55 AM,59.0,55.4,88,30.09,10.0,Calm,Calm,-,N/A,,Mostly Cloudy,0,2013-10-01 09:55:00
5:15 AM,59.0,55.4,88,30.10,10.0,Calm,Calm,-,N/A,,Mostly Cloudy,0,2013-10-01 10:15:00
5:35 AM,60.8,55.4,82,30.11,10.0,Calm,Calm,-,N/A,,Overcast,0,2013-10-01 10:35:00
5:55 AM,60.8,55.4,82,30.12,10.0,Calm,Calm,-,N/A,,Overcast,0,2013-10-01 10:55:00
6:15 AM,60.8,55.4,82,30.12,10.0,Calm,Calm,-,N/A,,Overcast,0,2013-10-01 11:15:00
6:35 AM,60.8,55.4,82,30.12,10.0,Calm,Calm,-,N/A,,Mostly Cloudy,0,2013-10-01 11:35:00
6:55 AM,60.8,55.4,82,30.12,10.0,Calm,Calm,-,N/A,,Overcast,0,2013-10-01 11:55:00
7:15 AM,60.8,57.2,88,30.13,10.0,Calm,Calm,-,N/A,,Overcast,0,2013-10-01 12:15:00
7:35 AM,60.8,57.2,88,30.13,10.0,Calm,Calm,-,N/A,,Overcast,0,2013-10-01 12:35:00
7:55 AM,62.6,57.2,82,30.14,10.0,Calm,Calm,-,N/A,,Overcast,0,2013-10-01 12:55:00
8:15 AM,64.4,59.0,83,30.15,10.0,Calm,Calm,-,N/A,,Mostly Cloudy,0,2013-10-01 13:15:00
8:35 AM,64.4,60.8,88,30.15,10.0,Calm,Calm,-,N/A,,Clear,0,2013-10-01 13:35:00
8:55 AM,66.2,60.8,83,30.15,10.0,Calm,Calm,-,N/A,,Partly Cloudy,0,2013-10-01 13:55:00
9:15 AM,68.0,60.8,78,30.15,10.0,Calm,Calm,-,N/A,,Scattered Clouds,0,2013-10-01 14:15:00
9:35 AM,69.8,62.6,78,30.15,10.0,Calm,Calm,-,N/A,,Mostly Cloudy,0,2013-10-01 14:35:00
9:55 AM,71.6,62.6,73,30.15,10.0,Calm,Calm,-,N/A,,Mostly Cloudy,0,2013-10-01 14:55:00
10:15 AM,71.6,62.6,73,30.15,10.0,Calm,Calm,-,N/A,,Partly Cloudy,0,2013-10-01 15:15:00
10:35 AM,73.4,62.6,69,30.15,10.0,Calm,Calm,-,N/A,,Mostly Cloudy,0,2013-10-01 15:35:00
10:55 AM,73.4,62.6,69,30.15,10.0,SW,3.5,-,N/A,,Mostly Cloudy,230,2013-10-01 15:55:00
11:15 AM,73.4,60.8,65,30.14,10.0,SW,4.6,-,N/A,,Mostly Cloudy,220,2013-10-01 16:15:00
11:35 AM,75.2,62.6,65,30.14,10.0,South,3.5,-,N/A,,Mostly Cloudy,190,2013-10-01 16:35:00
11:55 AM,77.0,62.6,61,30.13,10.0,SSW,3.5,-,N/A,,Mostly Cloudy,210,2013-10-01 16:55:00
12:15 PM,77.0,62.6,61,30.12,10.0,SSE,4.6,-,N/A,,Mostly Cloudy,150,2013-10-01 17:15:00
12:35 PM,75.2,62.6,65,30.11,10.0,Calm,Calm,-,N/A,,Mostly Cloudy,0,2013-10-01 17:35:00
12:55 PM,77.0,62.6,61,30.11,10.0,Calm,Calm,-,N/A,,Mostly Cloudy,0,2013-10-01 17:55:00
1:15 PM,78.8,60.8,54,30.10,10.0,Calm,Calm,-,N/A,,Mostly Cloudy,0,2013-10-01 18:15:00
1:35 PM,80.6,62.6,54,30.09,10.0,South,4.6,-,N/A,,Clear,180,2013-10-01 18:35:00
1:55 PM,80.6,62.6,54,30.08,10.0,SW,3.5,-,N/A,,Partly Cloudy,230,2013-10-01 18:55:00
2:15 PM,80.6,60.8,51,30.07,10.0,SE,5.8,-,N/A,,Partly Cloudy,140,2013-10-01 19:15:00
2:35 PM,80.6,62.6,54,30.07,10.0,NE,3.5,-,N/A,,Scattered Clouds,50,2013-10-01 19:35:00
2:55 PM,82.4,60.8,48,30.07,10.0,WSW,4.6,-,N/A,,Mostly Cloudy,250,2013-10-01 19:55:00
3:15 PM,80.6,60.8,51,30.06,10.0,Calm,Calm,-,N/A,,Partly Cloudy,0,2013-10-01 20:15:00
3:35 PM,82.4,60.8,48,30.06,10.0,West,3.5,-,N/A,,Partly Cloudy,260,2013-10-01 20:35:00
3:55 PM,82.4,60.8,48,30.06,10.0,Calm,Calm,-,N/A,,Partly Cloudy,0,2013-10-01 20:55:00
4:15 PM,82.4,60.8,48,30.05,10.0,Calm,Calm,-,N/A,,Clear,0,2013-10-01 21:15:00
4:35 PM,82.4,60.8,48,30.05,10.0,Calm,Calm,-,N/A,,Clear,0,2013-10-01 21:35:00
4:55 PM,82.4,60.8,48,30.05,10.0,Calm,Calm,-,N/A,,Clear,0,2013-10-01 21:55:00
5:15 PM,82.4,60.8,48,30.05,10.0,Calm,Calm,-,N/A,,Clear,0,2013-10-01 22:15:00
5:35 PM,78.8,62.6,57,30.06,10.0,Calm,Calm,-,N/A,,Clear,0,2013-10-01 22:35:00
5:55 PM,75.2,62.6,65,30.06,10.0,Calm,Calm,-,N/A,,Clear,0,2013-10-01 22:55:00
6:15 PM,75.2,64.4,69,30.07,10.0,Calm,Calm,-,N/A,,Clear,0,2013-10-01 23:15:00
6:35 PM,71.6,62.6,73,30.07,10.0,Calm,Calm,-,N/A,,Clear,0,2013-10-01 23:35:00
6:55 PM,69.8,62.6,78,30.08,10.0,Calm,Calm,-,N/A,,Clear,0,2013-10-01 23:55:00
7:15 PM,71.6,62.6,73,30.08,10.0,Calm,Calm,-,N/A,,Partly Cloudy,0,2013-10-02 00:15:00
7:35 PM,69.8,62.6,78,30.08,10.0,Calm,Calm,-,N/A,,Partly Cloudy,0,2013-10-02 00:35:00
7:55 PM,69.8,62.6,78,30.09,10.0,Calm,Calm,-,N/A,,Partly Cloudy,0,2013-10-02 00:55:00
8:15 PM,68.0,62.6,83,30.09,10.0,Calm,Calm,-,N/A,,Scattered Clouds,0,2013-10-02 01:15:00
8:35 PM,66.2,62.6,88,30.10,10.0,Calm,Calm,-,N/A,,Partly Cloudy,0,2013-10-02 01:35:00
8:55 PM,66.2,62.6,88,30.10,10.0,Calm,Calm,-,N/A,,Clear,0,2013-10-02 01:55:00
9:15 PM,64.4,60.8,88,30.10,10.0,Calm,Calm,-,N/A,,Clear,0,2013-10-02 02:15:00
9:35 PM,64.4,60.8,88,30.10,10.0,Calm,Calm,-,N/A,,Clear,0,2013-10-02 02:35:00
9:55 PM,64.4,60.8,88,30.11,10.0,Calm,Calm,-,N/A,,Clear,0,2013-10-02 02:55:00
10:15 PM,64.4,60.8,88,30.11,10.0,Calm,Calm,-,N/A,,Clear,0,2013-10-02 03:15:00
10:35 PM,64.4,60.8,88,30.11,10.0,Calm,Calm,-,N/A,,Clear,0,2013-10-02 03:35:00
10:55 PM,64.4,60.8,88,30.11,10.0,Calm,Calm,-,N/A,,Clear,0,2013-10-02 03:55:00
11:15 PM,62.6,59.0,88,30.12,10.0,Calm,Calm,-,N/A,,Clear,0,2013-10-02 04:15:00
11:35 PM,62.6,59.0,88,30.12,10.0,Calm,Calm,-,N/A,,Clear,0,2013-10-02 04:35:00
11:55 PM,62.6,57.2,82,30.12,10.0,Calm,Calm,-,N/A,,Clear,0,2013-10-02 04:55:00